sat.trackr.live / text

‹ back to catalog

STARLINK-11701 [DTC]

NORAD 63760 · 2025-089K

PAYLOAD ACTIVE UNKNOWN

§ Identity

Operator
Country
US
Launch date
2025-04-29
Launch site
AFETR
Launch vehicle
Mass (kg)
RCS (m²)

Purposes: comms

External: N2YO · Heavens-Above · Gunter

§ Orbital elements

Epoch: 2026-09-20T18:56:37.218624Z

Period
91.66 min
Inclination
42.9991°
Eccentricity
0.0002704
Mean motion
15.71073448 rev/d
Perigee alt
354.0 km
Apogee alt
357.6 km
Semi-major
6,734.0 km
B*
1.2085e-3
RAAN
195.8835°
Arg perigee
226.0887°
Mean anomaly
133.9757°
Rev number
8,082

§ Raw data

STARLINK-11701 [DTC]1 63760U 25089K   26263.78931966  .00159196  00000+0  12085-2 0  99922 63760  42.9991 195.8835 0002704 226.0887 133.9757 15.71073448 80826

JSON: /api/v1/satellites/63760 · /tle

For live sub-satellite position, see the globe view (requires WebGL).

§ Visibility from observer

Set your observer location to see the next 7 days of passes ≥ 10°. The values pass through the URL so the page stays shareable.

No JS? Fill the form by hand. The geolocation button needs JavaScript.